Lincoln Fly Road

*Note: All times are displayed in the local standard time of the station location.
**Rain - Equipment is designed to accurately record liquid precipitation; under conditions when precipitation is not in liquid form, the data displayed may not properly reflect rainfall values.

Date Max Temp
(°C)
Min Temp
(°C)
Avg Temp
(°C)
Rain (mm) Avg RH (%)
Sat, Feb 17, 2018 -1.8 -7.4 -3.9 0.0 66.4
Fri, Feb 16, 2018 4.3 -6.9 -0.8 0.0 73.0
Thu, Feb 15, 2018 8.0 2.5 5.5 0.6 94.6
Wed, Feb 14, 2018 4.7 -4.6 1.9 9.8 68.0
Tue, Feb 13, 2018 -1.2 -14.6 -7.3 0.2 65.9
Mon, Feb 12, 2018 -2.7 -10.6 -6.1 0.2 65.3
Sun, Feb 11, 2018 0.2 -4.7 -2.5 3.0 84.2
DateTime Avg Temp (°C) Rain (mm) RH (%)
Sun, Feb 18, 2018 04:00 -3.2 0.0 82.5
Sun, Feb 18, 2018 03:00 -3.0 0.0 80.0
Sun, Feb 18, 2018 02:00 -2.7 0.0 79.3
Sun, Feb 18, 2018 01:00 -2.6 0.0 80.8
Sun, Feb 18, 2018 00:00 -2.3 0.0 78.5
Sat, Feb 17, 2018 23:00 -2.1 0.0 75.0
Sat, Feb 17, 2018 22:00 -2.2 0.0 68.0
Sat, Feb 17, 2018 21:00 -2.3 0.0 67.0
Sat, Feb 17, 2018 20:00 -2.3 0.0 64.5
Sat, Feb 17, 2018 19:00 -2.4 0.0 60.0
Sat, Feb 17, 2018 18:00 -2.4 0.0 55.5
Sat, Feb 17, 2018 17:00 -2.2 0.0 52.3
Sat, Feb 17, 2018 16:00 -2.1 0.0 56.8
Sat, Feb 17, 2018 15:00 -1.9 0.0 55.0
Sat, Feb 17, 2018 14:00 -2.0 0.0 54.8
Sat, Feb 17, 2018 13:00 -2.0 0.0 55.8
Sat, Feb 17, 2018 12:00 -2.0 0.0 55.5
Sat, Feb 17, 2018 11:00 -2.3 0.0 59.8
Sat, Feb 17, 2018 10:00 -3.3 0.0 64.0
Sat, Feb 17, 2018 09:00 -4.6 0.0 68.0
Sat, Feb 17, 2018 08:00 -6.3 0.0 73.3
Sat, Feb 17, 2018 07:00 -6.9 0.0 75.5
Sat, Feb 17, 2018 06:00 -7.0 0.0 77.3
Sat, Feb 17, 2018 05:00 -6.8 0.0 76.3
Sat, Feb 17, 2018 04:00 -6.7 0.0 77.0
Sat, Feb 17, 2018 03:00 -7.1 0.0 76.3
Sat, Feb 17, 2018 02:00 -7.3 0.0 74.0
Sat, Feb 17, 2018 01:00 -7.1 0.0 73.5
Sat, Feb 17, 2018 00:00 -6.8 0.0 71.3
Fri, Feb 16, 2018 23:00 -6.4 0.0 69.3
Fri, Feb 16, 2018 22:00 -6.1 0.0 64.3
Fri, Feb 16, 2018 21:00 -5.5 0.0 64.0
Fri, Feb 16, 2018 20:00 -4.6 0.0 57.8
Fri, Feb 16, 2018 19:00 -4.2 0.0 54.5
Fri, Feb 16, 2018 18:00 -3.4 0.0 53.0
Fri, Feb 16, 2018 17:00 -2.1 0.0 53.5
Fri, Feb 16, 2018 16:00 -1.0 0.0 53.0
Fri, Feb 16, 2018 15:00 0.2 0.0 53.3
Fri, Feb 16, 2018 14:00 0.5 0.0 52.3
Fri, Feb 16, 2018 13:00 0.8 0.0 57.5
Fri, Feb 16, 2018 12:00 0.9 0.0 65.0
Fri, Feb 16, 2018 11:00 0.6 0.0 77.8
Fri, Feb 16, 2018 10:00 0.7 0.0 78.0
Fri, Feb 16, 2018 09:00 0.3 0.0 78.8
Fri, Feb 16, 2018 08:00 0.2 0.0 81.0
Fri, Feb 16, 2018 07:00 1.0 0.0 83.0
Fri, Feb 16, 2018 06:00 1.7 0.0 87.0
Fri, Feb 16, 2018 05:00 1.8 0.0 97.0


asterix Register now to access more data! asterix